CAPE
0 0 0 0 0 0 0 0 0 0 0 0 0 0 0 0 0 0 0 0 0 0 0 0 0 0 0 0 0 0 0 0 0 0 0 0 0 1 1 10 3 4 4 2
0 0 0 0 0 0 0 0 0 0 0 0 0 0 0 0 0 0 0 0 0 0 0 0 0 0 0 0 0 0 0 0 0 0 0 0 3 4 1 1 3 7 4 2
0 0 0 0 0 0 0 0 0 0 0 0 0 0 0 0 0 0 0 0 0 0 0 0 0 0 0 0 0 0 0 0 0 1 2 4 6 7 9 4 5 2 10 18
0 0 0 0 0 0 0 0 0 0 0 0 0 0 0 0 0 0 0 0 0 0 0 0 0 0 0 0 0 0 0 0 0 2 3 6 7 3 2 8 10 15 15 9
0 0 0 0 0 0 0 0 0 0 0 0 0 0 0 0 0 0 0 0 0 0 0 0 0 0 0 0 0 0 0 0 1 4 2 7 1 1 2 4 7 13 11 1
0 0 0 0 0 0 0 0 0 0 0 0 0 0 0 0 0 0 0 0 0 0 0 0 0 0 0 0 0 0 0 0 7 3 2 4 1 1 2 7 3 3 7 0
0 0 0 0 0 0 0 0 0 0 0 0 0 0 0 0 0 0 0 0 0 0 0 0 0 0 0 0 0 0 0 2 3 1 1 0 0 0 1 1 1 4 3 0
0 0 0 0 0 0 0 0 0 0 0 0 0 0 0 0 0 0 0 0 0 0 0 0 0 0 0 0 0 0 0 3 1 1 2 1 0 0 2 3 2 2 3 1
0 0 0 0 0 0 0 0 0 0 0 0 0 0 0 0 0 0 0 0 0 0 0 0 0 0 0 0 0 0 2 2 3 2 4 3 4 2 2 2 2 2 3 2
0 0 0 0 0 0 0 0 0 0 0 0 0 0 0 0 0 0 0 0 0 0 0 0 0 0 0 0 0 2 6 6 2 4 3 3 2 2 2 2 2 2 2 2
0 0 0 0 0 0 0 0 0 0 0 0 0 0 0 0 0 0 0 0 0 0 0 0 0 0 0 1 1 6 4 1 1 2 5 2 1 2 3 2 7 7 2 3
0 0 0 0 0 0 0 0 0 0 0 0 0 0 0 0 0 0 0 0 0 0 0 0 0 0 0 0 5 6 8 1 4 3 1 1 2 2 2 6 8 16 13 12
0 0 0 0 0 0 0 0 0 0 0 0 0 0 0 0 0 0 0 0 0 0 0 0 0 0 0 2 8 8 0 0 2 1 1 2 2 3 0 0 4 6 14 12
0 0 0 0 0 0 0 0 0 0 0 0 0 0 0 0 0 0 0 0 0 0 0 0 0 0 0 0 10 3 0 4 1 1 1 2 2 1 4 3 3 2 2 7
0 0 0 0 0 0 0 0 0 0 0 0 0 0 0 0 0 0 0 0 0 0 0 0 0 0 0 1 4 2 3 1 1 1 2 3 1 3 2 3 2 3 1 1
0 0 0 0 0 0 0 0 0 0 0 0 0 0 0 0 0 0 0 0 0 0 0 0 0 0 0 3 2 3 2 1 2 1 2 2 2 3 3 3 2 2 2 3
0 0 0 0 0 0 0 0 0 0 0 0 0 0 0 0 0 0 0 0 0 0 0 0 0 0 1 3 6 0 1 1 2 1 2 2 2 3 2 3 2 1 2 4
0 0 0 0 0 0 0 0 0 0 0 0 0 0 0 0 0 0 0 0 0 0 0 0 0 0 1 2 10 0 0 1 1 2 2 2 2 2 2 2 2 2 2 2
0 0 0 0 2 5 0 0 0 0 0 0 0 0 0 0 0 0 0 0 0 0 0 0 0 0 1 8 10 1 1 1 1 2 2 2 2 2 2 1 1 1 2 2
0 0 0 0 0 2 0 0 0 0 0 0 0 0 0 0 0 0 0 0 0 0 0 0 0 0 0 7 9 0 0 0 1 1 2 2 2 1 1 1 1 1 2 2
0 3 0 0 0 0 0 0 0 0 0 0 0 0 0 0 0 0 0 0 0 0 0 0 0 0 2 11 1 1 0 1 1 1 2 1 1 1 1 1 2 2 1 1
0 0 0 0 0 0 0 0 0 0 0 0 0 0 0 0 0 0 0 0 0 0 0 0 0 1 3 6 0 0 0 1 0 1 1 1 1 1 1 1 1 1 1 2
0 0 0 0 0 0 0 0 0 0 0 0 0 0 0 0 0 0 0 0 0 0 0 0 0 2 0 0 1 0 0 0 0 0 0 1 1 1 1 1 1 1 1 1
0 0 0 0 0 0 0 0 0 0 0 0 0 0 0 0 0 0 0 0 1 0 0 0 0 2 0 0 0 1 0 0 0 0 0 0 0 1 1 1 1 1 1 1
0 0 0 0 0 0 0 0 0 0 0 0 0 0 0 0 0 0 1 0 0 0 0 0 0 0 0 0 0 1 0 0 3 0 0 0 0 0 1 1 1 1 2 1
0 0 0 0 0 0 0 0 0 0 0 0 0 0 0 0 0 0 0 0 0 0 0 0 0 0 0 0 0 0 0 0 0 0 1 1 1 1 1 1 1 2 2 2
0 0 0 0 0 0 0 0 0 0 0 0 0 0 0 0 0 0 0 0 0 0 0 0 0 0 0 0 0 0 0 0 0 0 1 0 0 0 0 1 1 1 2 2
CIN
0 0 0 0 0 0 0 0 0 0 0 0 0 0 0 0 0 0 0 0 0 0 0 0 0 0 0 0 0 0 0 0 0 0 0 0 0 -2 -5 -1 -2 -1 -4 -4
0 0 0 0 0 0 0 0 0 0 0 0 0 0 0 0 0 0 0 0 0 0 0 0 0 0 0 0 0 0 0 0 0 0 0 0 -2 -3 -1 -3 -2 0 -2 -3
0 0 0 0 0 0 0 0 0 0 0 0 0 0 0 0 0 0 0 0 0 0 0 0 0 0 0 0 0 0 0 0 0 -1 -2 -3 -3 -1 -1 -2 -1 -2 0 0
0 0 0 0 0 0 0 0 0 0 0 0 0 0 0 0 0 0 0 0 0 0 0 0 0 0 0 0 0 0 0 0 0 -3 -2 -1 -1 0 -2 -1 -1 0 0 0
0 0 0 0 0 0 0 0 0 0 0 0 0 0 0 0 0 0 0 0 0 0 0 0 0 0 0 0 0 0 0 0 -3 -1 -1 -1 -2 -2 -1 -2 0 0 0 0
0 0 0 0 0 0 0 0 0 0 0 0 0 0 0 0 0 0 0 0 0 0 0 0 0 0 0 0 0 0 0 0 -1 -4 -2 0 -1 0 0 0 0 0 0 0
0 0 0 0 0 0 0 0 0 0 0 0 0 0 0 0 0 0 0 0 0 0 0 0 0 0 0 0 0 0 0 -2 -1 -7 -3 -3 0 -1 0 0 0 0 0 0
0 0 0 0 0 0 0 0 0 0 0 0 0 0 0 0 0 0 0 0 0 0 0 0 0 0 0 0 0 0 -1 -2 -4 -6 -1 -1 0 0 0 0 0 0 0 0
0 0 0 0 0 0 0 0 0 0 0 0 0 0 0 0 0 0 0 0 0 0 0 0 0 0 0 0 -1 -8 -3 -4 -2 -3 -1 -1 0 0 0 0 0 0 0 0
0 0 0 0 0 0 0 0 0 0 0 0 0 0 0 0 0 0 0 0 0 0 0 0 0 0 0 0 -4 -2 -3 -1 -2 -1 0 0 0 0 0 0 0 0 0 0
0 0 0 0 0 0 0 0 0 0 0 0 0 0 0 0 0 0 0 0 0 0 0 0 0 0 0 -2 -4 -5 -3 -1 -1 0 0 0 0 0 0 0 -1 0 0 0
0 0 0 0 0 0 0 0 0 0 0 0 0 0 0 0 0 0 0 0 0 0 0 0 0 0 0 -4 -5 -2 0 0 0 0 0 0 0 0 0 0 0 0 0 0
0 0 0 0 0 0 0 0 0 0 0 0 0 0 0 0 0 0 0 0 0 0 0 0 0 0 0 -6 -3 0 0 0 0 0 0 0 0 0 0 0 0 0 0 0
0 0 0 0 0 0 0 0 0 0 0 0 0 0 0 0 0 0 0 0 0 0 0 0 0 0 0 0 -1 -3 0 0 0 0 0 0 0 0 0 0 0 0 0 0
0 0 0 0 0 0 0 0 0 0 0 0 0 0 0 0 0 0 0 0 0 0 0 0 0 0 0 -3 -3 -1 0 0 0 0 0 0 0 0 0 0 0 0 0 -1
0 0 0 0 0 0 0 0 0 0 0 0 0 0 0 0 0 0 0 0 0 0 0 0 0 0 0 -7 -5 0 0 0 0 0 0 0 0 0 0 0 0 0 0 -1
0 0 0 0 0 0 0 0 0 0 0 0 0 0 0 0 0 0 0 0 0 0 0 0 0 0 -9 -8 -1 -1 0 0 0 0 0 0 0 0 0 0 0 0 0 0
0 0 0 0 0 0 0 0 0 0 0 0 0 0 0 0 0 0 0 0 0 0 0 0 0 0 -3 -3 -1 -5 0 0 0 0 0 0 0 0 0 0 0 0 0 0
0 0 0 0 -63 -78 0 0 0 0 0 0 0 0 0 0 0 0 0 0 0 0 0 0 0 0 -10 -1 -1 -3 0 0 0 0 0 0 0 0 0 0 0 0 0 0
0 0 0 0 0 -63 0 0 0 0 0 0 0 0 0 0 0 0 0 0 0 0 0 0 0 0 0 0 -1 -3 -1 0 0 0 0 0 0 0 0 0 0 0 0 0
-1 -4 0 0 0 0 0 0 0 0 0 0 0 0 0 0 0 0 0 0 0 0 0 0 0 0 -2 -1 -4 -2 -1 0 0 0 0 0 0 0 0 0 0 0 0 0
0 0 0 0 0 0 0 0 0 0 0 0 0 0 0 0 0 0 0 0 0 0 0 0 0 -1 -1 0 -1 0 0 0 0 0 0 0 0 0 0 0 0 0 0 0
0 0 0 0 0 0 0 0 0 0 0 0 0 0 0 0 0 0 0 0 0 0 0 0 0 0 0 0 0 0 0 0 0 0 0 0 0 0 0 0 0 0 0 0
0 0 0 0 0 0 0 0 0 0 0 0 0 0 0 0 0 0 0 0 0 0 0 0 0 0 0 0 0 0 0 -1 0 0 0 0 0 0 0 0 0 0 0 0
0 0 0 0 0 0 0 0 0 0 0 0 0 0 0 0 0 0 -4 0 0 0 0 0 0 0 0 0 0 0 0 0 0 -1 0 0 0 0 0 0 0 0 0 0
0 0 0 0 0 0 0 0 0 0 0 0 0 0 0 0 0 0 0 0 0 0 0 0 0 0 0 0 0 0 0 0 0 0 0 0 0 0 0 0 0 0 0 0
0 0 0 0 0 0 0 0 0 0 0 0 0 0 0 0 0 0 -1 0 0 0 0 0 0 0 0 0 0 0 0 0 0 0 -2 -1 0 0 0 0 0 0 0 0
Wind_Speed
29 30 30 31 31 31 31 31 37 41 41 42 38 35 34 31 31 31 32 33 33 34 37 39 40 40 41 42 43 42 43 44 46 44 46 49 47 45 45 42 44 42 44 47
32 28 28 33 33 33 33 33 34 37 40 27 29 32 34 33 36 38 36 35 34 37 40 41 42 42 42 43 43 42 44 45 45 47 47 47 45 42 41 41 42 42 43 39
33 29 35 38 28 27 28 27 30 35 34 32 35 35 36 36 39 37 35 34 37 40 41 42 42 42 43 43 42 45 45 45 47 45 46 47 43 41 42 40 39 37 34 33
32 33 36 26 28 28 27 28 29 30 31 32 32 33 36 38 38 33 34 37 39 40 41 41 41 41 41 42 45 44 44 46 45 45 46 45 43 40 39 33 33 30 26 24
30 31 35 33 24 27 30 34 31 30 31 33 36 39 40 34 33 32 35 37 38 40 40 40 40 41 42 44 43 44 44 47 45 45 48 42 39 36 31 29 27 24 20 18
28 33 35 29 24 25 25 35 31 36 38 42 42 50 41 38 33 33 35 37 39 39 40 39 40 40 42 42 43 45 47 47 45 45 42 35 30 25 24 23 22 20 18 16
27 30 29 27 23 22 35 35 37 38 39 41 43 38 38 39 37 35 37 37 37 38 38 39 39 40 40 42 43 45 44 45 44 39 33 28 23 23 23 23 23 20 17 15
24 27 32 21 25 32 34 37 36 37 38 42 40 42 42 39 37 36 37 37 36 38 38 38 38 39 41 43 43 43 45 43 39 31 28 22 22 21 22 22 19 17 14 13
24 24 25 25 28 33 32 36 38 41 41 41 43 43 40 38 35 35 35 35 35 36 37 36 38 39 42 42 43 43 42 39 31 27 21 19 20 19 19 18 16 15 14 12
30 27 33 37 35 38 38 41 42 41 41 41 42 38 37 35 34 34 32 33 33 34 35 38 39 39 40 40 40 41 41 33 27 36 31 18 16 16 16 14 14 16 14 10
33 35 34 33 37 42 44 41 41 40 40 38 39 35 34 32 30 30 30 31 32 34 36 38 39 39 37 39 39 40 38 25 29 38 35 18 14 13 10 12 15 20 16 11
34 33 35 39 39 38 41 41 40 42 42 38 35 31 29 28 27 28 29 30 32 34 36 37 37 37 36 39 39 38 37 32 36 40 40 26 19 16 19 15 22 43 41 28
30 31 33 36 36 39 41 41 40 38 36 36 33 26 25 26 25 25 28 31 34 34 34 35 36 37 37 38 39 39 38 30 35 37 39 30 16 21 15 10 18 37 40 30
27 30 34 34 39 39 40 39 37 37 33 30 28 26 24 23 25 28 30 31 29 30 33 33 35 35 37 38 36 41 31 31 24 27 36 31 18 21 14 7 10 23 23 10
25 28 30 33 37 37 39 40 38 34 31 28 23 23 23 26 26 27 29 28 28 30 31 31 33 35 34 37 39 34 35 14 13 28 15 16 16 10 4 5 4 11 20 11
26 28 30 34 36 38 39 39 36 34 30 26 23 22 22 23 25 28 28 28 31 32 30 31 34 33 36 36 39 36 30 16 24 17 13 15 9 5 3 6 11 12 7 15
28 31 33 35 36 37 37 36 35 32 30 26 23 22 23 24 27 28 28 27 28 27 28 32 31 35 36 39 33 35 24 15 22 16 11 9 4 2 9 10 12 18 24 27
25 28 29 31 33 35 36 35 33 29 26 24 23 22 23 25 27 27 24 25 26 25 28 32 31 34 37 33 33 32 24 18 20 14 9 4 2 3 6 24 30 32 8 20
25 29 31 32 31 32 33 32 30 27 24 23 21 21 22 24 26 25 24 25 24 25 28 29 31 34 35 30 32 28 23 22 19 13 6 4 2 2 3 10 28 30 27 10
26 29 31 32 30 30 30 29 27 24 22 20 20 20 22 25 25 23 23 22 21 23 28 27 29 34 33 28 30 23 20 21 17 10 7 10 4 1 1 2 4 7 18 10
27 27 29 30 30 30 28 27 25 23 18 19 18 19 18 22 19 20 22 22 21 24 26 26 28 33 33 28 28 21 21 19 13 10 10 14 6 4 1 3 3 6 10 10
30 28 27 29 29 29 30 28 24 21 18 18 15 15 15 18 20 21 17 16 20 22 24 24 28 30 30 27 25 21 20 16 12 11 12 10 7 5 1 3 2 6 11 3
28 27 28 28 26 24 24 24 24 18 18 15 13 12 9 15 20 23 19 19 21 21 22 24 29 29 27 25 23 21 19 15 13 11 12 9 7 5 4 1 2 2 3 1
28 28 28 26 23 20 20 21 21 15 17 17 13 10 10 15 18 18 17 17 18 20 20 24 28 27 25 24 21 20 17 15 13 13 12 10 8 6 5 3 1 0 1 0
22 23 28 28 24 20 16 16 17 17 15 13 13 9 9 12 17 19 17 17 18 19 20 23 26 26 24 22 21 19 18 15 14 13 11 11 9 7 6 4 3 2 3 2
23 18 19 24 27 23 19 15 10 11 11 12 12 10 6 9 12 14 14 13 16 17 18 21 25 24 23 22 20 19 17 15 14 12 12 11 10 9 7 6 4 3 4 4
26 22 22 24 26 25 23 22 18 12 7 6 11 9 7 9 10 12 13 15 15 16 18 20 23 23 22 20 20 18 16 15 14 13 12 11 11 11 9 7 6 5 6 6
Wind_Direction
313 314 314 312 312 312 307 306 306 311 312 316 322 326 328 332 334 333 330 329 330 331 331 332 331 332 333 333 333 333 332 331 330 330 330 329 328 327 326 325 324 320 318 315
314 318 318 314 313 312 311 311 310 313 315 326 331 330 330 331 331 331 330 331 332 332 331 331 331 332 332 333 333 334 333 332 332 331 330 330 329 329 328 328 327 324 322 318
314 321 318 315 324 325 324 326 321 317 321 327 327 329 330 330 330 330 331 332 332 331 331 331 332 333 333 333 335 334 333 333 333 333 331 332 331 330 330 330 330 327 324 322
316 320 314 328 332 328 324 328 329 327 329 332 334 336 334 331 330 331 332 331 331 331 331 332 333 334 334 336 335 335 334 334 334 334 333 332 334 332 332 332 331 330 325 321
317 316 316 324 337 334 331 328 335 338 338 336 335 333 333 336 337 334 333 332 332 332 332 333 334 334 335 335 336 336 336 336 336 336 335 335 335 335 332 329 329 327 323 321
320 316 316 331 336 341 339 325 340 337 333 331 331 325 331 336 335 332 333 332 332 333 333 334 335 337 336 337 338 338 338 338 338 337 338 338 335 323 324 328 321 321 316 322
316 316 320 330 341 345 326 326 333 333 332 331 329 329 329 330 329 330 332 333 334 334 334 334 337 338 338 338 339 339 340 341 340 341 341 338 313 324 326 323 324 323 323 325
324 320 320 344 339 327 327 327 330 334 333 330 329 328 329 329 331 332 332 333 334 334 334 337 340 340 339 339 341 342 342 342 344 345 343 316 312 325 332 329 320 318 311 311
325 325 330 335 332 334 337 332 331 328 328 327 326 327 329 329 330 331 333 334 335 336 337 341 342 342 340 342 343 344 345 346 347 345 325 327 314 323 335 343 340 339 337 331
319 323 320 321 325 328 330 327 327 328 329 328 327 329 330 331 333 335 337 338 339 340 341 341 342 343 344 345 346 347 348 350 351 303 303 320 336 346 351 349 346 349 348 342
314 317 321 327 328 326 325 328 329 329 330 330 331 332 333 336 337 339 339 341 343 342 342 341 343 345 349 349 350 349 351 353 306 309 307 312 351 355 339 352 355 14 16 20
316 326 324 324 327 329 329 329 330 329 329 332 333 334 338 340 342 342 342 344 343 343 343 344 346 349 351 352 352 353 354 307 310 315 317 9 11 302 306 314 11 7 20 37
323 327 327 327 330 331 330 331 332 333 333 334 337 341 342 342 345 347 346 344 343 344 347 349 350 351 353 355 353 353 313 306 312 317 355 315 304 305 308 20 44 358 14 1
330 332 329 333 331 334 334 333 333 334 337 340 342 343 343 345 345 345 344 346 351 352 351 352 353 355 356 355 358 331 308 310 322 16 3 325 306 313 314 354 51 49 59 41
334 336 334 334 335 337 338 336 335 336 339 341 346 347 345 340 346 347 348 351 355 353 354 356 358 357 359 357 352 314 318 319 324 328 308 309 311 314 6 344 15 66 64 65
335 335 335 335 336 337 338 339 339 339 340 340 343 346 346 347 348 347 350 353 350 351 357 359 358 1 357 358 330 325 313 309 313 310 308 310 312 320 352 69 83 74 47 352
333 333 333 333 335 336 338 339 339 339 338 337 342 342 341 346 345 348 350 352 353 357 1 360 3 359 355 342 317 331 308 306 311 308 307 313 329 18 83 83 80 77 73 2
336 336 337 336 335 337 336 337 338 338 337 337 335 337 338 344 347 351 356 356 357 2 2 1 5 359 349 319 326 329 310 305 310 306 302 321 34 82 91 64 53 49 350 351
334 333 335 334 333 334 335 336 338 338 335 334 333 331 341 347 348 352 356 355 1 3 2 6 4 355 329 318 327 322 310 312 311 306 302 306 321 88 94 92 64 60 71 96
329 330 330 332 335 336 335 338 338 338 336 336 328 331 338 343 352 356 357 2 9 8 4 8 5 348 325 317 326 310 306 312 306 296 295 309 304 276 298 351 78 346 351 351
328 328 330 332 332 333 334 335 337 335 337 328 330 329 342 346 359 4 358 1 7 7 8 11 4 332 332 320 325 306 309 309 298 294 300 316 301 293 296 102 70 352 349 350
331 332 331 329 328 329 330 332 334 333 332 325 332 334 343 350 355 360 10 10 10 11 12 13 0 319 324 318 319 312 308 299 290 295 309 304 298 296 266 122 77 350 350 13
331 332 331 332 333 334 335 335 333 334 327 325 328 335 348 346 349 351 1 7 6 11 15 12 344 319 317 320 318 315 308 295 291 285 305 297 297 287 294 271 128 74 0 56
331 330 328 334 337 338 336 337 336 336 327 319 322 332 338 340 343 355 3 7 9 12 17 9 331 323 317 317 313 312 305 292 287 289 294 293 288 288 294 279 272 179 130 97
330 332 328 328 331 333 333 337 340 340 334 324 323 332 335 339 338 349 359 4 6 11 16 4 331 324 318 311 310 307 306 293 290 287 279 282 282 277 277 278 264 207 192 215
336 336 337 334 330 332 331 334 328 341 344 333 328 329 342 346 355 4 10 13 9 12 19 8 337 322 316 314 307 305 298 293 285 281 281 279 271 269 267 270 270 265 240 244
328 331 333 331 330 328 325 324 325 327 337 340 327 328 335 337 350 2 9 10 11 16 16 10 341 326 313 307 309 298 292 286 281 276 279 281 285 284 272 257 253 254 283 268